| time (UTC) | temp C | wind direction | speed KPH | gust KPH | rain 1hr cm | rain 24hr cm | rain mn cm | humidity % | barometer mb |
| 20260506135859 | 14 | 223 | 1.6 | 1.6 | 0.00 | 0.15 | 0.15 | 99 | 1014.1 |
| 20260506135356 | 14 | 201 | 0.0 | 1.6 | 0.00 | 0.15 | 0.15 | 99 | 1014.2 |
| 20260506134852 | 14 | 191 | 0.0 | 1.6 | 0.00 | 0.15 | 0.15 | 98 | 1014.5 |
| 20260506134349 | 14 | 190 | 1.6 | 1.6 | 0.00 | 0.15 | 0.15 | 98 | 1014.2 |
| 20260506133846 | 14 | 194 | 0.0 | 1.6 | 0.13 | 0.15 | 0.15 | 98 | 1013.9 |
| 20260506133342 | 14 | 195 | 0.0 | 0.0 | 0.30 | 0.15 | 0.15 | 97 | 1014.1 |
| 20260506132839 | 14 | 177 | 0.0 | 0.0 | 0.48 | 0.13 | 0.13 | 97 | 1014.3 |
| 20260506132336 | 13 | 176 | 0.0 | 0.0 | 0.30 | 0.10 | 0.10 | 96 | 1014.2 |
| 20260506131834 | 14 | 196 | 3.2 | 3.2 | 0.00 | 0.05 | 0.05 | 95 | 1014.3 |
| 20260506131330 | 14 | 191 | 1.6 | 1.6 | 0.13 | 0.05 | 0.05 | 94 | 1014.3 |
| 20260506130828 | 14 | 184 | 0.0 | 0.0 | 0.13 | 0.05 | 0.05 | 93 | 1014.2 |
| 20260506130324 | 14 | 190 | 0.0 | 0.0 | 0.00 | 0.03 | 0.03 | 93 | 1013.9 |
| 20260506125822 | 14 | 214 | 1.6 | 1.6 | 0.00 | 0.03 | 0.03 | 92 | 1013.7 |
| 20260506125320 | 14 | 181 | 0.0 | 0.0 | 0.18 | 0.03 | 0.03 | 91 | 1013.8 |
| 20260506124818 | 15 | 188 | 0.0 | 1.6 | 0.18 | 0.03 | 0.03 | 89 | 1013.7 |
| 20260506124315 | 15 | 174 | 0.0 | 1.6 | 0.00 | 0.00 | 0.00 | 86 | 1013.8 |
| 20260506123812 | 15 | 225 | 1.6 | 1.6 | 0.00 | 0.00 | 0.00 | 84 | 1013.8 |
| 20260506123311 | 15 | 213 | 1.6 | 1.6 | 0.00 | 0.00 | 0.00 | 81 | 1013.6 |
| 20260506122807 | 15 | 189 | 1.6 | 1.6 | 0.00 | 0.00 | 0.00 | 81 | 1013.6 |
| 20260506122306 | 15 | 184 | 0.0 | 1.6 | 0.00 | 0.00 | 0.00 | 81 | 1013.5 |
| 20260506121802 | 15 | 212 | 0.0 | 1.6 | 0.00 | 0.00 | 0.00 | 82 | 1013.5 |
| 20260506121259 | 15 | 199 | 0.0 | 1.6 | 0.00 | 0.00 | 0.00 | 81 | 1013.6 |
| 20260506120756 | 15 | 216 | 1.6 | 3.2 | 0.00 | 0.00 | 0.00 | 80 | 1013.4 |
| 20260506120254 | 15 | 200 | 0.0 | 1.6 | 0.00 | 0.00 | 0.00 | 80 | 1013.4 |
| 20260506115752 | 15 | 187 | 1.6 | 1.6 | 0.00 | 0.00 | 0.00 | 82 | 1013.3 |
| 20260506115250 | 15 | 203 | 1.6 | 1.6 | 0.00 | 0.00 | 0.00 | 82 | 1013.0 |
| 20260506114747 | 15 | 191 | 3.2 | 3.2 | 0.00 | 0.00 | 0.00 | 82 | 1013.2 |
| 20260506114245 | 15 | 232 | 1.6 | 1.6 | 0.00 | 0.00 | 0.00 | 82 | 1013.2 |
| 20260506113743 | 15 | 203 | 0.0 | 0.0 | 0.00 | 0.00 | 0.00 | 82 | 1013.0 |
| 20260506113240 | 15 | 186 | 0.0 | 1.6 | 0.00 | 0.00 | 0.00 | 82 | 1012.8 |
| 20260506112736 | 15 | 248 | 3.2 | 3.2 | 0.00 | 0.00 | 0.00 | 83 | 1012.5 |
| 20260506112234 | 15 | 192 | 0.0 | 1.6 | 0.00 | 0.00 | 0.00 | 83 | 1012.6 |
| 20260506111731 | 15 | 128 | 0.0 | 1.6 | 0.00 | 0.00 | 0.00 | 84 | 1012.7 |
| 20260506111230 | 15 | 171 | 0.0 | 1.6 | 0.00 | 0.00 | 0.00 | 85 | 1012.7 |
| 20260506110726 | 15 | 172 | 0.0 | 1.6 | 0.00 | 0.00 | 0.00 | 83 | 1012.8 |
| 20260506110224 | 14 | 193 | 1.6 | 1.6 | 0.00 | 0.00 | 0.00 | 84 | 1012.6 |
| 20260506105720 | 14 | 184 | 0.0 | 0.0 | 0.00 | 0.00 | 0.00 | 85 | 1012.7 |
| 20260506105217 | 15 | 194 | 1.6 | 1.6 | 0.00 | 0.00 | 0.00 | 85 | 1012.8 |
| 20260506104715 | 15 | 174 | 0.0 | 0.0 | 0.00 | 0.00 | 0.00 | 84 | 1012.5 |
| 20260506104212 | 15 | 179 | 0.0 | 0.0 | 0.00 | 0.00 | 0.00 | 83 | 1012.7 |
| 20260506103709 | 15 | 187 | 0.0 | 0.0 | 0.00 | 0.00 | 0.00 | 80 | 1012.5 |
| 20260506103206 | 15 | 180 | 0.0 | 0.0 | 0.00 | 0.00 | 0.00 | 80 | 1012.5 |
| 20260506102704 | 15 | 178 | 0.0 | 0.0 | 0.00 | 0.00 | 0.00 | 81 | 1012.5 |
| 20260506102202 | 14 | 182 | 0.0 | 0.0 | 0.00 | 0.00 | 0.00 | 82 | 1012.6 |
| 20260506101658 | 14 | 174 | 0.0 | 1.6 | 0.00 | 0.00 | 0.00 | 82 | 1012.6 |
| 20260506101155 | 13 | 185 | 0.0 | 0.0 | 0.00 | 0.00 | 0.00 | 84 | 1012.6 |
| 20260506100653 | 13 | 171 | 0.0 | 1.6 | 0.00 | 0.00 | 0.00 | 84 | 1012.4 |
| 20260506100151 | 13 | 178 | 0.0 | 0.0 | 0.00 | 0.00 | 0.00 | 84 | 1012.5 |
| 20260506095650 | 13 | 161 | 0.0 | 0.0 | 0.00 | 0.00 | 0.00 | 86 | 1012.3 |
| 20260506095146 | 13 | 194 | 0.0 | 1.6 | 0.00 | 0.00 | 0.00 | 86 | 1012.8 |
| 20260506094643 | 13 | 184 | 0.0 | 1.6 | 0.00 | 0.00 | 0.00 | 85 | 1012.3 |
| 20260506094141 | 13 | 183 | 0.0 | 0.0 | 0.00 | 0.00 | 0.00 | 85 | 1012.2 |
| 20260506093639 | 13 | 174 | 0.0 | 0.0 | 0.00 | 0.00 | 0.00 | 84 | 1012.6 |
| 20260506093136 | 13 | 180 | 0.0 | 0.0 | 0.00 | 0.00 | 0.00 | 83 | 1012.6 |
| 20260506092634 | 13 | 180 | 0.0 | 0.0 | 0.00 | 0.00 | 0.00 | 83 | 1012.7 |
| 20260506092131 | 13 | 191 | 0.0 | 0.0 | 0.00 | 0.00 | 0.00 | 83 | 1012.8 |
| 20260506091629 | 13 | 182 | 0.0 | 0.0 | 0.00 | 0.00 | 0.00 | 82 | 1012.7 |
| 20260506091126 | 13 | 182 | 0.0 | 0.0 | 0.00 | 0.00 | 0.00 | 82 | 1012.6 |
| 20260506090624 | 13 | 158 | 0.0 | 1.6 | 0.00 | 0.00 | 0.00 | 81 | 1012.6 |
| 20260506090120 | 13 | 192 | 0.0 | 0.0 | 0.00 | 0.00 | 0.00 | 81 | 1012.7 |
| 20260506085617 | 13 | 183 | 0.0 | 0.0 | 0.00 | 0.00 | 0.00 | 80 | 1012.8 |
| 20260506085113 | 13 | 190 | 0.0 | 0.0 | 0.00 | 0.00 | 0.00 | 80 | 1012.9 |
| 20260506084610 | 14 | 173 | 0.0 | 0.0 | 0.00 | 0.00 | 0.00 | 78 | 1013.2 |
| 20260506084107 | 14 | 183 | 0.0 | 0.0 | 0.00 | 0.00 | 0.00 | 77 | 1013.0 |
| 20260506083604 | 15 | 166 | 0.0 | 0.0 | 0.00 | 0.00 | 0.00 | 76 | 1012.7 |
| 20260506083101 | 15 | 171 | 0.0 | 0.0 | 0.00 | 0.00 | 0.00 | 75 | 1013.2 |
| 20260506082558 | 15 | 172 | 0.0 | 0.0 | 0.00 | 0.00 | 0.00 | 74 | 1012.7 |
| 20260506082053 | 15 | 172 | 0.0 | 0.0 | 0.00 | 0.00 | 0.00 | 73 | 1013.0 |
| 20260506081552 | 15 | 182 | 0.0 | 0.0 | 0.00 | 0.00 | 0.00 | 73 | 1013.0 |
| 20260506081049 | 15 | 171 | 0.0 | 0.0 | 0.00 | 0.00 | 0.00 | 73 | 1013.0 |
| 20260506080547 | 15 | 156 | 0.0 | 0.0 | 0.00 | 0.00 | 0.00 | 73 | 1013.2 |
| 20260506073027 | 15 | 180 | 0.0 | 0.0 | 0.00 | 0.00 | 0.00 | 72 | 1013.4 |
| 20260506072524 | 15 | 192 | 0.0 | 0.0 | 0.00 | 0.00 | 0.00 | 71 | 1013.2 |
| 20260506072022 | 15 | 187 | 0.0 | 0.0 | 0.00 | 0.00 | 0.00 | 72 | 1013.3 |
| 20260506071520 | 15 | 183 | 0.0 | 0.0 | 0.00 | 0.00 | 0.00 | 70 | 1013.3 |
| 20260506071016 | 15 | 163 | 0.0 | 0.0 | 0.00 | 0.00 | 0.00 | 70 | 1013.0 |
| 20260506070514 | 15 | 178 | 0.0 | 1.6 | 0.00 | 0.00 | 0.00 | 70 | 1013.3 |
| 20260506062451 | 14 | 179 | 0.0 | 0.0 | 0.00 | 0.00 | 0.00 | 74 | 1013.6 |
| 20260506061947 | 14 | 172 | 0.0 | 0.0 | 0.00 | 0.00 | 0.00 | 73 | 1013.7 |
| 20260506061443 | 15 | 167 | 0.0 | 1.6 | 0.00 | 0.00 | 0.00 | 71 | 1013.6 |
| 20260506060941 | 15 | 173 | 0.0 | 0.0 | 0.00 | 0.00 | 0.00 | 69 | 1013.7 |
| 20260506060440 | 15 | 170 | 0.0 | 0.0 | 0.00 | 0.00 | 0.00 | 69 | 1013.6 |
| 20260506051411 | 15 | 186 | 0.0 | 0.0 | 0.00 | 0.00 | 0.00 | 68 | 1014.4 |
| 20260506050908 | 15 | 185 | 0.0 | 0.0 | 0.00 | 0.00 | 0.00 | 68 | 1014.2 |
| 20260506050406 | 16 | 199 | 0.0 | 1.6 | 0.00 | 0.00 | 0.00 | 66 | 1014.3 |
| 20260506044856 | 16 | 193 | 0.0 | 0.0 | 0.00 | 0.00 | 0.00 | 64 | 1014.3 |
| 20260506044354 | 16 | 179 | 0.0 | 0.0 | 0.00 | 0.00 | 0.00 | 64 | 1014.2 |
| 20260506043851 | 16 | 178 | 0.0 | 0.0 | 0.00 | 0.00 | 0.00 | 63 | 1014.6 |
| 20260506043348 | 16 | 176 | 0.0 | 0.0 | 0.00 | 0.00 | 0.00 | 63 | 1014.3 |
| 20260506042847 | 16 | 192 | 1.6 | 1.6 | 0.00 | 0.00 | 0.00 | 64 | 1014.3 |
| 20260506042345 | 16 | 174 | 0.0 | 0.0 | 0.00 | 0.00 | 0.00 | 64 | 1014.3 |
| 20260506041844 | 16 | 175 | 0.0 | 0.0 | 0.00 | 0.00 | 0.00 | 64 | 1014.6 |
| 20260506041340 | 16 | 178 | 0.0 | 0.0 | 0.00 | 0.00 | 0.00 | 64 | 1014.4 |
| 20260506040837 | 16 | 183 | 0.0 | 0.0 | 0.00 | 0.00 | 0.00 | 64 | 1014.4 |
| 20260506040335 | 16 | 181 | 0.0 | 0.0 | 0.00 | 0.00 | 0.00 | 64 | 1014.7 |
| 20260506035831 | 16 | 173 | 0.0 | 0.0 | 0.00 | 0.00 | 0.00 | 63 | 1014.6 |
| 20260506035329 | 16 | 179 | 0.0 | 0.0 | 0.00 | 0.00 | 0.00 | 61 | 1014.6 |
| 20260506034825 | 16 | 181 | 0.0 | 0.0 | 0.00 | 0.00 | 0.00 | 61 | 1014.7 |
| 20260506034323 | 16 | 174 | 0.0 | 0.0 | 0.00 | 0.00 | 0.00 | 60 | 1014.6 |
| 20260506033820 | 16 | 157 | 0.0 | 1.6 | 0.00 | 0.00 | 0.00 | 60 | 1015.0 |
| 20260506033317 | 16 | 179 | 0.0 | 0.0 | 0.00 | 0.00 | 0.00 | 60 | 1014.6 |
| 20260506032813 | 17 | 179 | 0.0 | 0.0 | 0.00 | 0.00 | 0.00 | 60 | 1014.6 |
| 20260506032310 | 17 | 175 | 0.0 | 0.0 | 0.00 | 0.00 | 0.00 | 59 | 1014.5 |
| 20260506031807 | 17 | 170 | 0.0 | 1.6 | 0.00 | 0.00 | 0.00 | 59 | 1014.6 |
| 20260506031304 | 17 | 176 | 0.0 | 0.0 | 0.00 | 0.00 | 0.00 | 58 | 1014.7 |
| 20260506030802 | 17 | 196 | 1.6 | 1.6 | 0.00 | 0.00 | 0.00 | 57 | 1014.5 |
| 20260506030300 | 17 | 180 | 0.0 | 0.0 | 0.00 | 0.00 | 0.00 | 59 | 1014.4 |
| 20260506025757 | 17 | 205 | 1.6 | 1.6 | 0.00 | 0.00 | 0.00 | 57 | 1014.4 |
| 20260506025253 | 17 | 174 | 0.0 | 0.0 | 0.00 | 0.00 | 0.00 | 58 | 1014.6 |
| 20260506024750 | 17 | 187 | 0.0 | 1.6 | 0.00 | 0.00 | 0.00 | 57 | 1014.6 |
| 20260506024246 | 17 | 178 | 0.0 | 0.0 | 0.00 | 0.00 | 0.00 | 56 | 1014.9 |
| 20260506023742 | 17 | 205 | 1.6 | 1.6 | 0.00 | 0.00 | 0.00 | 56 | 1014.7 |
| 20260506023240 | 17 | 177 | 0.0 | 0.0 | 0.00 | 0.00 | 0.00 | 57 | 1014.6 |
| 20260506022737 | 17 | 183 | 0.0 | 0.0 | 0.00 | 0.00 | 0.00 | 56 | 1014.9 |
| 20260506022235 | 17 | 177 | 0.0 | 1.6 | 0.00 | 0.00 | 0.00 | 56 | 1015.1 |
| 20260506021732 | 17 | 181 | 1.6 | 1.6 | 0.00 | 0.00 | 0.00 | 56 | 1014.9 |
| 20260506021229 | 17 | 178 | 0.0 | 0.0 | 0.00 | 0.00 | 0.00 | 55 | 1014.7 |
| 20260506020726 | 17 | 185 | 1.6 | 1.6 | 0.00 | 0.00 | 0.00 | 55 | 1014.9 |
| 20260506020224 | 18 | 203 | 1.6 | 3.2 | 0.00 | 0.00 | 0.00 | 54 | 1014.9 |
| 20260506015721 | 18 | 198 | 1.6 | 1.6 | 0.00 | 0.00 | 0.00 | 54 | 1015.0 |
| 20260506015219 | 18 | 202 | 1.6 | 1.6 | 0.00 | 0.00 | 0.00 | 53 | 1014.9 |
| 20260506014715 | 18 | 185 | 0.0 | 0.0 | 0.00 | 0.00 | 0.00 | 53 | 1015.0 |
| 20260506014211 | 18 | 198 | 3.2 | 3.2 | 0.00 | 0.00 | 0.00 | 53 | 1015.1 |
| 20260506013709 | 18 | 175 | 1.6 | 1.6 | 0.00 | 0.00 | 0.00 | 54 | 1014.9 |
| 20260506013206 | 18 | 172 | 0.0 | 1.6 | 0.00 | 0.00 | 0.00 | 54 | 1014.9 |
| 20260506012702 | 18 | 176 | 0.0 | 0.0 | 0.00 | 0.00 | 0.00 | 53 | 1015.2 |
| 20260506012159 | 18 | 147 | 1.6 | 1.6 | 0.00 | 0.00 | 0.00 | 52 | 1015.0 |
| 20260506011657 | 18 | 182 | 0.0 | 0.0 | 0.00 | 0.00 | 0.00 | 53 | 1015.0 |
| 20260506011152 | 18 | 176 | 0.0 | 1.6 | 0.00 | 0.00 | 0.00 | 52 | 1015.1 |
| 20260506010651 | 18 | 176 | 1.6 | 3.2 | 0.00 | 0.00 | 0.00 | 52 | 1015.0 |
| 20260506010148 | 18 | 226 | 1.6 | 1.6 | 0.00 | 0.00 | 0.00 | 52 | 1015.0 |
| 20260506005645 | 18 | 183 | 0.0 | 0.0 | 0.00 | 0.00 | 0.00 | 51 | 1014.7 |
| 20260506005142 | 18 | 195 | 1.6 | 1.6 | 0.00 | 0.00 | 0.00 | 52 | 1014.5 |
| 20260506004633 | 18 | 151 | 0.0 | 0.0 | 0.00 | 0.00 | 0.00 | 51 | 1014.5 |
| 20260506004130 | 18 | 180 | 1.6 | 1.6 | 0.00 | 0.00 | 0.00 | 51 | 1014.7 |
| 20260506003626 | 19 | 213 | 3.2 | 3.2 | 0.00 | 0.00 | 0.00 | 49 | 1014.6 |
| 20260506003122 | 19 | 197 | 0.0 | 0.0 | 0.00 | 0.00 | 0.00 | 50 | 1014.5 |
| 20260506002618 | 19 | 217 | 1.6 | 1.6 | 0.00 | 0.00 | 0.00 | 49 | 1014.5 |
| 20260506002114 | 19 | 196 | 4.8 | 8.0 | 0.00 | 0.00 | 0.00 | 49 | 1014.4 |
| 20260506001610 | 20 | 208 | 0.0 | 1.6 | 0.00 | 0.00 | 0.00 | 48 | 1014.6 |
| 20260506001107 | 20 | 110 | 3.2 | 3.2 | 0.00 | 0.00 | 0.00 | 47 | 1014.5 |
| 20260506000605 | 20 | 163 | 1.6 | 3.2 | 0.00 | 0.00 | 0.00 | 48 | 1014.5 |
| 20260505235600 | 20 | 208 | 1.6 | 3.2 | 0.00 | 0.00 | 0.00 | 47 | 1014.4 |
| 20260505235057 | 20 | 192 | 3.2 | 3.2 | 0.00 | 0.00 | 0.00 | 48 | 1014.3 |
| 20260505234554 | 20 | 172 | 0.0 | 0.0 | 0.00 | 0.00 | 0.00 | 46 | 1014.5 |
| 20260505234050 | 20 | 153 | 3.2 | 3.2 | 0.00 | 0.00 | 0.00 | 47 | 1014.3 |
| 20260505233548 | 20 | 202 | 3.2 | 4.8 | 0.00 | 0.00 | 0.00 | 46 | 1014.1 |
| 20260505233045 | 20 | 182 | 3.2 | 4.8 | 0.00 | 0.00 | 0.00 | 48 | 1014.0 |
| 20260505232543 | 20 | 213 | 3.2 | 3.2 | 0.00 | 0.00 | 0.00 | 47 | 1014.1 |
| 20260505232040 | 21 | 220 | 1.6 | 3.2 | 0.00 | 0.00 | 0.00 | 46 | 1014.0 |
| 20260505231537 | 21 | 165 | 1.6 | 3.2 | 0.00 | 0.00 | 0.00 | 46 | 1014.0 |
| 20260505231036 | 21 | 164 | 1.6 | 1.6 | 0.00 | 0.00 | 0.00 | 48 | 1014.0 |
| 20260505230533 | 21 | 197 | 4.8 | 4.8 | 0.00 | 0.00 | 0.00 | 44 | 1013.9 |
| 20260505230029 | 21 | 203 | 6.4 | 9.7 | 0.00 | 0.00 | 0.00 | 46 | 1013.9 |
| 20260505225526 | 21 | 179 | 1.6 | 3.2 | 0.00 | 0.00 | 0.00 | 45 | 1013.8 |
| 20260505225022 | 21 | 136 | 1.6 | 1.6 | 0.00 | 0.00 | 0.00 | 45 | 1014.2 |
| 20260505224519 | 21 | 170 | 1.6 | 1.6 | 0.00 | 0.00 | 0.00 | 45 | 1013.7 |
| 20260505224016 | 21 | 147 | 1.6 | 3.2 | 0.00 | 0.00 | 0.00 | 46 | 1013.8 |
| 20260505223513 | 21 | 238 | 4.8 | 9.7 | 0.00 | 0.00 | 0.00 | 44 | 1013.9 |
| 20260505223010 | 21 | 160 | 1.6 | 1.6 | 0.00 | 0.00 | 0.00 | 44 | 1014.2 |
| 20260505222506 | 21 | 156 | 4.8 | 9.7 | 0.00 | 0.00 | 0.00 | 43 | 1013.9 |
| 20260505222002 | 22 | 186 | 1.6 | 3.2 | 0.00 | 0.00 | 0.00 | 44 | 1014.3 |
| 20260505221500 | 22 | 119 | 1.6 | 1.6 | 0.00 | 0.00 | 0.00 | 43 | 1014.1 |
| 20260505220956 | 22 | 180 | 0.0 | 0.0 | 0.00 | 0.00 | 0.00 | 45 | 1013.9 |
| 20260505220453 | 22 | 222 | 1.6 | 3.2 | 0.00 | 0.00 | 0.00 | 42 | 1014.2 |
| 20260505215951 | 22 | 130 | 6.4 | 9.7 | 0.00 | 0.00 | 0.00 | 41 | 1014.2 |
| 20260505215449 | 22 | 231 | 4.8 | 8.0 | 0.00 | 0.00 | 0.00 | 40 | 1013.8 |
| 20260505214946 | 22 | 223 | 0.0 | 1.6 | 0.00 | 0.00 | 0.00 | 43 | 1014.1 |
| 20260505214444 | 22 | 190 | 4.8 | 8.0 | 0.00 | 0.00 | 0.00 | 41 | 1014.2 |
| 20260505213941 | 22 | 184 | 1.6 | 1.6 | 0.00 | 0.00 | 0.00 | 41 | 1014.3 |
| 20260505213439 | 22 | 182 | 0.0 | 1.6 | 0.00 | 0.00 | 0.00 | 40 | 1014.0 |
| 20260505212935 | 23 | 175 | 3.2 | 3.2 | 0.00 | 0.00 | 0.00 | 42 | 1013.9 |
| 20260505212432 | 23 | 209 | 6.4 | 8.0 | 0.00 | 0.00 | 0.00 | 38 | 1014.0 |
| 20260505211928 | 23 | 153 | 1.6 | 3.2 | 0.00 | 0.00 | 0.00 | 42 | 1013.9 |
| 20260505211425 | 23 | 119 | 1.6 | 1.6 | 0.00 | 0.00 | 0.00 | 38 | 1013.9 |
| 20260505210922 | 23 | 224 | 1.6 | 3.2 | 0.00 | 0.00 | 0.00 | 39 | 1013.8 |
| 20260505210419 | 23 | 191 | 3.2 | 4.8 | 0.00 | 0.00 | 0.00 | 39 | 1014.0 |
| 20260505205916 | 23 | 208 | 3.2 | 3.2 | 0.00 | 0.00 | 0.00 | 39 | 1014.2 |
| 20260505205415 | 23 | 185 | 0.0 | 1.6 | 0.00 | 0.00 | 0.00 | 39 | 1014.1 |
| 20260505204911 | 23 | 183 | 0.0 | 1.6 | 0.00 | 0.00 | 0.00 | 40 | 1014.1 |
| 20260505204409 | 22 | 60 | 1.6 | 3.2 | 0.00 | 0.00 | 0.00 | 39 | 1014.1 |
| 20260505203906 | 22 | 223 | 4.8 | 4.8 | 0.00 | 0.00 | 0.00 | 41 | 1014.1 |
| 20260505203402 | 23 | 161 | 4.8 | 4.8 | 0.00 | 0.00 | 0.00 | 37 | 1014.1 |
| 20260505202859 | 23 | 173 | 3.2 | 4.8 | 0.00 | 0.00 | 0.00 | 39 | 1014.2 |
| 20260505202355 | 23 | 235 | 4.8 | 8.0 | 0.00 | 0.00 | 0.00 | 37 | 1014.2 |
| 20260505201852 | 23 | 237 | 3.2 | 4.8 | 0.00 | 0.00 | 0.00 | 38 | 1014.2 |
| 20260505201349 | 23 | 209 | 1.6 | 1.6 | 0.00 | 0.00 | 0.00 | 38 | 1014.2 |
| 20260505200847 | 23 | 165 | 4.8 | 4.8 | 0.00 | 0.00 | 0.00 | 38 | 1014.5 |
| 20260505200344 | 23 | 237 | 3.2 | 3.2 | 0.00 | 0.00 | 0.00 | 38 | 1014.3 |
| 20260505195839 | 23 | 184 | 3.2 | 4.8 | 0.00 | 0.00 | 0.00 | 37 | 1014.3 |
| 20260505195337 | 23 | 170 | 3.2 | 4.8 | 0.00 | 0.00 | 0.00 | 40 | 1014.5 |
| 20260505194834 | 23 | 174 | 1.6 | 3.2 | 0.00 | 0.00 | 0.00 | 38 | 1014.0 |
| 20260505194331 | 23 | 138 | 3.2 | 4.8 | 0.00 | 0.00 | 0.00 | 37 | 1014.3 |
| 20260505193826 | 23 | 216 | 3.2 | 4.8 | 0.00 | 0.00 | 0.00 | 36 | 1014.4 |
| 20260505193324 | 24 | 236 | 3.2 | 3.2 | 0.00 | 0.00 | 0.00 | 36 | 1014.7 |
| 20260505192821 | 25 | 178 | 4.8 | 4.8 | 0.00 | 0.00 | 0.00 | 38 | 1014.6 |
| 20260505192320 | 25 | 177 | 6.4 | 9.7 | 0.00 | 0.00 | 0.00 | 37 | 1014.5 |
| 20260505191817 | 25 | 105 | 1.6 | 3.2 | 0.00 | 0.00 | 0.00 | 38 | 1014.5 |
| 20260505191315 | 24 | 209 | 1.6 | 1.6 | 0.00 | 0.00 | 0.00 | 38 | 1014.6 |
| 20260505190812 | 24 | 186 | 1.6 | 3.2 | 0.00 | 0.00 | 0.00 | 41 | 1014.6 |
| 20260505190307 | 24 | 244 | 4.8 | 8.0 | 0.00 | 0.00 | 0.00 | 41 | 1014.9 |
| 20260505185804 | 24 | 161 | 1.6 | 3.2 | 0.00 | 0.00 | 0.00 | 43 | 1015.1 |
| 20260505185300 | 25 | 140 | 1.6 | 1.6 | 0.00 | 0.00 | 0.00 | 42 | 1015.1 |
| 20260505184756 | 25 | 212 | 4.8 | 4.8 | 0.00 | 0.00 | 0.00 | 41 | 1015.0 |
| 20260505184253 | 25 | 120 | 6.4 | 11.3 | 0.00 | 0.00 | 0.00 | 42 | 1014.9 |
| 20260505183750 | 25 | 174 | 3.2 | 3.2 | 0.00 | 0.00 | 0.00 | 39 | 1014.7 |
| 20260505183248 | 25 | 215 | 1.6 | 3.2 | 0.00 | 0.00 | 0.00 | 37 | 1015.0 |
| 20260505182744 | 24 | 252 | 3.2 | 4.8 | 0.00 | 0.00 | 0.00 | 37 | 1014.9 |
| 20260505182240 | 25 | 247 | 4.8 | 4.8 | 0.00 | 0.00 | 0.00 | 35 | 1015.3 |
| 20260505181737 | 25 | 231 | 3.2 | 3.2 | 0.00 | 0.00 | 0.00 | 37 | 1015.2 |
| 20260505181235 | 25 | 232 | 3.2 | 3.2 | 0.00 | 0.00 | 0.00 | 40 | 1015.3 |
| 20260505180731 | 24 | 139 | 3.2 | 4.8 | 0.00 | 0.00 | 0.00 | 38 | 1015.3 |
| 20260505180228 | 24 | 271 | 8.0 | 12.9 | 0.00 | 0.00 | 0.00 | 39 | 1015.4 |
| 20260505175724 | 24 | 204 | 4.8 | 8.0 | 0.00 | 0.00 | 0.00 | 39 | 1015.4 |
| 20260505175221 | 25 | 173 | 3.2 | 3.2 | 0.00 | 0.00 | 0.00 | 38 | 1015.4 |
| 20260505174717 | 24 | 196 | 0.0 | 0.0 | 0.00 | 0.00 | 0.00 | 41 | 1015.5 |
| 20260505174214 | 25 | 178 | 4.8 | 4.8 | 0.00 | 0.00 | 0.00 | 41 | 1015.5 |
| 20260505173710 | 24 | 226 | 3.2 | 3.2 | 0.00 | 0.00 | 0.00 | 41 | 1015.8 |
| 20260505173207 | 24 | 181 | 1.6 | 1.6 | 0.00 | 0.00 | 0.00 | 45 | 1015.6 |
| 20260505172704 | 24 | 194 | 1.6 | 1.6 | 0.00 | 0.00 | 0.00 | 40 | 1015.8 |
| 20260505172201 | 23 | 190 | 1.6 | 1.6 | 0.00 | 0.00 | 0.00 | 41 | 1016.0 |
| 20260505171701 | 23 | 210 | 3.2 | 4.8 | 0.00 | 0.00 | 0.00 | 40 | 1015.9 |
| 20260505171158 | 23 | 264 | 4.8 | 4.8 | 0.00 | 0.00 | 0.00 | 41 | 1016.0 |
| 20260505170655 | 23 | 235 | 4.8 | 4.8 | 0.00 | 0.00 | 0.00 | 40 | 1016.3 |
| 20260505170152 | 23 | 209 | 4.8 | 8.0 | 0.00 | 0.00 | 0.00 | 42 | 1016.3 |
| 20260505165652 | 23 | 241 | 1.6 | 3.2 | 0.00 | 0.00 | 0.00 | 41 | 1016.2 |
| 20260505165148 | 23 | 233 | 6.4 | 8.0 | 0.00 | 0.00 | 0.00 | 42 | 1016.5 |
| 20260505164644 | 23 | 217 | 0.0 | 1.6 | 0.00 | 0.00 | 0.00 | 44 | 1016.2 |
| 20260505164142 | 23 | 228 | 3.2 | 3.2 | 0.00 | 0.00 | 0.00 | 43 | 1016.7 |
| 20260505163639 | 23 | 191 | 3.2 | 4.8 | 0.00 | 0.00 | 0.00 | 43 | 1016.4 |
| 20260505163137 | 23 | 144 | 1.6 | 3.2 | 0.00 | 0.00 | 0.00 | 41 | 1016.9 |
| 20260505162634 | 23 | 238 | 1.6 | 3.2 | 0.00 | 0.00 | 0.00 | 42 | 1016.7 |
| 20260505162132 | 23 | 209 | 1.6 | 3.2 | 0.00 | 0.00 | 0.00 | 39 | 1016.7 |
| 20260505161629 | 23 | 176 | 4.8 | 4.8 | 0.00 | 0.00 | 0.00 | 40 | 1016.9 |
| 20260505161126 | 23 | 155 | 4.8 | 4.8 | 0.00 | 0.00 | 0.00 | 41 | 1016.8 |
| 20260505160624 | 23 | 156 | 3.2 | 3.2 | 0.00 | 0.00 | 0.00 | 44 | 1017.0 |
| 20260505160121 | 22 | 155 | 3.2 | 4.8 | 0.00 | 0.00 | 0.00 | 45 | 1016.8 |
| 20260505153101 | 22 | 236 | 3.2 | 3.2 | 0.00 | 0.00 | 0.00 | 46 | 1017.1 |
| 20260505152557 | 22 | 181 | 4.8 | 8.0 | 0.00 | 0.00 | 0.00 | 45 | 1017.6 |
| 20260505152053 | 22 | 230 | 1.6 | 1.6 | 0.00 | 0.00 | 0.00 | 49 | 1017.2 |
| 20260505151548 | 22 | 147 | 3.2 | 3.2 | 0.00 | 0.00 | 0.00 | 48 | 1017.3 |
| 20260505151046 | 21 | 180 | 3.2 | 3.2 | 0.00 | 0.00 | 0.00 | 47 | 1017.4 |
| 20260505150542 | 21 | 250 | 4.8 | 4.8 | 0.00 | 0.00 | 0.00 | 50 | 1017.5 |
| 20260505140508 | 18 | 193 | 3.2 | 4.8 | 0.00 | 0.00 | 0.00 | 61 | 1017.4 |